Regional Weather Roundup
Issued by NWS

Home | Current Version | Previous Version | Graphics & Text | Print | Product List | Glossary On
Versions: 1 2 3 4 5 6 7 8 9 10 11 12 13 14 15 16 17 18 19 20 21 22 23 24 25 26 27 28 29 30 31 32 33 34 35 36 37 38 39 40 41 42 43 44 45 46 47 48 49 50
000
ASUS45 KTFX 171219
RWRMT
MONTANA HOURLY WEATHER ROUNDUP
NATIONAL WEATHER SERVICE GREAT FALLS MT
519 AM MST WED DEC 17 2014

NOTE: "FAIR" INDICATES FEW OR NO CLOUDS BELOW 12000 FEET WITH NO
SIGNIFICANT WEATHER AND/OR OBSTRUCTIONS TO VISIBILITY.

* THESE STATIONS ARE NOT UNDER NWS QUALITY CONTROL. THEY DO NOT
   REPORT WEATHER SUCH AS PRECIPITATION OR FOG.

MTZ001>007-043-171300-
WEST OF THE DIVIDE
CITY           SKY/WX    TMP DP  RH WIND       PRES   REMARKS
KALISPELL      CLOUDY    27  25  92 CALM      29.97F
MISSOULA       CLOUDY    28  23  81 CALM      29.99S
BUTTE          CLOUDY    23  21  92 S3        29.92S
MULLAN PASS    FOG       27  25  92 S7        29.85F VSB 1    WCI  19
* ANACONDA     MOCLDY    21  19  92 N3         N/A
* ESSEX        N/A       22  20  92 N/A        N/A
* EUREKA APT   CLEAR     28  25  89 CALM       N/A
* HAMILTON APT MOCLDY    28  23  81 CALM      29.96S
* LIBBY APT    PTCLDY    28  27  96 CALM       N/A
* LINCOLN      N/A       22  20  92 E1         N/A
* LOOKOUT PASS N/A       25  24  96 S4G11      N/A
* POLSON       N/A       27  26  96 N/A        N/A
* RONAN APT    PTCLDY    28  27  96 N/A        N/A
* SEELEY LAKE  N/A       23  21  92 SE1        N/A
* THOMP F APT  MOCLDY    24  22  92 N/A        N/A
* YAAK HILL    N/A       31  28  89 N1         N/A
$$

MTZ008-052>055-171300-
SOUTHWEST MONTANA
CITY           SKY/WX    TMP DP  RH WIND       PRES   REMARKS
BOZEMAN        LGT SNOW  25  21  85 CALM      29.96S VSB 3
DILLON         CLOUDY    25  21  85 W5        29.93S WCI  19
* W YELLOWSTON CLOUDY    25  23  92 SW2G7      N/A
* THREE FORKS  CLOUDY    27   3  35 N/A        N/A
* BOULDER HILL N/A       26  23  88 SW10       N/A   WCI  16
* MONIDA PASS  N/A       23  23 100 SE12       N/A   WCI  11
* RAYNOLDS PAS N/A       24   9  53 SE7        N/A   WCI  16
* WHITEHALL    N/A       25  23  92 E2G9       N/A
* WISE RIVER   N/A       20  17  88 NW2        N/A
$$

MTZ009>010-012-014-046-048-049-054-171300-
EAST SLOPES AND CENTRAL MONTANA
CITY           SKY/WX    TMP DP  RH WIND       PRES   REMARKS
CUT BANK       FOG       19  18  96 S5        29.88F VSB M1/4 WCI  12
GREAT FALLS    CLOUDY    23  21  92 CALM      29.90S
HELENA         FOG       27  25  92 CALM      29.95S
MALMSTROM AFB  CLOUDY    23  23 100 N2        29.93S
* CONRAD       MOCLDY    21  19  92 CALM       N/A
* DEARBORN     N/A       31  27  85 S3         N/A
* EAST GLACIER N/A       29  24  82 W17G24     N/A   WCI  17
* MONARCH      N/A       28  25  89 S1         N/A
* PENDROY      N/A       14  13  96 W1         N/A
* ROGERS PASS  N/A       26  22  85 SE6        N/A   WCI  19
* SWEET GRASS  N/A       21  21 100 S21        N/A   WCI   5
* WHITE SULPH  N/A       27  26  96 N/A        N/A
$$

MTZ011-013-016-021-035-040-045-047-050-051-171300-
NORTH CENTRAL MONTANA
CITY           SKY/WX    TMP DP  RH WIND       PRES   REMARKS
HAVRE          CLOUDY    19  18  96 CALM      29.98F
LEWISTOWN      CLOUDY    25  19  78 CALM      29.90S
* CHINOOK      MOCLDY    21  19  92 E7        30.00S WCI  12
* MALTA APT    CLOUDY    21  16  81 E6         N/A   WCI  13
* CHESTER      N/A       22  20  92 S3         N/A
* DENTON       N/A       21  20  96 N/A        N/A
* GEYSER       N/A       27  26  96 W2         N/A
* JUDITH GAP   N/A       22  21  96 SE5        N/A   WCI  15
* LOMA         N/A       25  23  92 E9         N/A   WCI  16
$$

MTZ017>020-022>027-061-062-171300-
NORTHEAST MONTANA
CITY           SKY/WX    TMP DP  RH WIND       PRES   REMARKS
GLASGOW        CLOUDY    18  14  84 SE14      30.07F WCI   4
GLENDIVE       CLOUDY    16  12  84 S8        30.11S WCI   5
JORDAN         CLOUDY    19  18  96 SE9       30.03F WCI   8
SIDNEY         CLOUDY    18  16  92 SE10      30.17R WCI   6
WOLF POINT     CLOUDY    19  16  88 E7        30.13S WCI  10
* BEAVER HILL  N/A       14  12  92 SE6G12     N/A   WCI   5
* CIRCLE       N/A       17  15  92 S7         N/A   WCI   7
* LINDSAY DVD  N/A       14  13  96 SE8        N/A   WCI   3
* NAVAJO       N/A       14  12  92 S10        N/A   WCI   1
* PLENTYWOOD A PTCLDY    16  14  92 S9        30.12F WCI   5
* POPLAR APT   PTCLDY    16  12  84 E8        30.14S WCI   5
* SACO         N/A       18  17  96 E11G16     N/A   WCI   6
$$

MTZ028>042-056>058-171300-
SOUTHCENTRAL AND SOUTHEAST MONTANA
CITY           SKY/WX    TMP DP  RH WIND       PRES   REMARKS
BAKER          CLOUDY    18  16  92 SE15      30.07F WCI   4
BILLINGS       FOG       21  19  92 CALM      29.96F
LIVINGSTON     LGT SNOW  27  21  78 W5        29.92S VSB 1 3/4 WCI  21
MILES CITY     CLOUDY    21  18  88 E5        30.05F WCI  14
* FORSYTH APT  CLOUDY    21  19  92 E6        30.03S WCI  13
* LAUREL APT   PTCLDY    19  14  81 N/A        N/A
* ROUNDUP APT  CLOUDY    23  18  81 N/A        N/A
* ALZADA       N/A       16  14  92 E7         N/A   WCI   6
* HYSHAM       N/A       18  16  92 N/A        N/A
* REED POINT   N/A       23  22  96 W4         N/A
* ROSCOE HILL  N/A       26  17  69 S2         N/A
$$

REGIONAL REPORTS...DAKOTAS
CITY           SKY/WX    TMP DP  RH WIND       PRES   REMARKS
WILLISTON      CLOUDY    19  12  74 SE9       30.17F WCI   8
DICKINSON      CLOUDY    16  12  84 SE14      30.12F WCI   2
BEACH          CLOUDY    16  16 100 SE16G26   30.09F WCI   1
CROSBY         CLOUDY    18  16  92 SE10      30.19F WCI   6
TIOGA          CLOUDY    16  16 100 SE10      30.20S WCI   4
WATFORD CITY   CLOUDY    18  14  84 S9        30.15F WCI   7
BISMARCK       LGT SNOW  14  10  84 SE5       30.28F WCI   6
GRAND FORKS    PTCLDY     1  -2  87 NW6       30.37F WCI -11
FARGO          PTCLDY     3  -2  79 N6        30.37S WCI  -8
BUFFALO SD     MOCLDY    18  14  84 SE14      29.99F WCI   4
RAPID CITY     CLOUDY    19  18  96 SE10      30.05F WCI   8
$$

REGIONAL REPORTS...WYOMING/IDAHO/WASHINGTON
CITY           SKY/WX    TMP DP  RH WIND       PRES   REMARKS
GILLETTE       PTCLDY    16  12  84 S8        29.92F WCI   5
SHERIDAN       FOG       19  16  88 S3        29.95S VSB 3/4
CODY           PTCLDY    18  12  77 NE6       29.89S WCI  10
YELLOWSTONE LA MOCLDY    18  16  92 CALM      29.94S
SALMON         CLOUDY    25  23  92 CALM      29.99S
MULLAN PASS    FOG       27  25  92 S7        29.85S VSB 1    WCI  19
SAND POINT     CLOUDY    32  32 100 CALM      29.97S
SPOKANE        CLOUDY    32  30  92 NE9       29.91F WCI  24
$$

REGIONAL REPORTS...ALBERTA
CITY           SKY/WX    TMP DP  RH WIND       PRES   REMARKS
CALGARY        FOG       14  10  84 S7        29.77F WCI   4
LETHBRIDGE     CLEAR     21  18  88 S20       29.84F WCI   6
MEDICINE HAT   FAIR       9   7  91 E2        29.92F
EDMONTON       CLOUDY    21  19  92 S10       29.86S WCI  10
WATERTON GATE  N/A       34  25  70 SW17G26    N/A   WCI  23
CARDSTON       N/A       23  23 100 SW8        N/A   WCI  14
MILK RIVER     N/A       21  21 100 S12        N/A   WCI   9
$$

REGIONAL REPORTS...SASKATCHEWAN
CITY           SKY/WX    TMP DP  RH WIND       PRES   REMARKS
SWIFT CURRENT  CLOUDY    16  14  92 SE17G25   29.96F
MOOSE JAW      LGT SNOW  19  16  88 S10       30.13S WCI   8
REGINA         CLOUDY    18  14  84 S13       30.15F WCI   5
VAL MARIE      N/A       16  16 100 S10        N/A   WCI   4
ASSINIBOIA     N/A       16  14  92 S9         N/A   WCI   5
CORONACH       N/A       16  14  92 SE10       N/A   WCI   4

$$



USA.gov is the U.S. government's official web portal to all federal, state and local government web resources and services.